Regional Weather Roundup
Issued by NWS Newport/Morehead, NC

Current Version | Previous Version | Graphics & Text | Print | Product List | Glossary Off
Versions: 1 2 3 4 5 6 7 8 9 10 11 12 13 14 15 16 17 18 19 20 21 22 23 24 25 26 27 28 29 30 31 32 33 34 35 36 37 38 39 40 41 42 43 44 45 46 47 48 49 50

008
ASUS42 KMHX 101324
RWRMHX
WEATHER ROUNDUP FOR EASTERN NORTH CAROLINA
NATIONAL WEATHER SERVICE NEWPORT/MOREHEAD CITY NC
800 AM EST SAT DEC 10 2016

NOTE: "FAIR" INDICATES FEW OR NO CLOUDS BELOW 12,000 FEET
WITH NO SIGNIFICANT WEATHER AND/OR OBSTRUCTIONS TO VISIBILITY

NCZ015>017-031-032-045>047-102-103-101400-
NORTH COAST

CITY           SKY/WX    TMP DP  RH WIND       PRES   REMARKS
EDENTON        NOT AVBL
ELIZABETH CITY CLEAR     26  20  77 W6        30.54R
KITTY HAWK     SUNNY     33  26  75 CALM      30.51R
MANTEO         CLEAR     34  24  67 N8        30.52R

$$

NCZ045>047-081-094-103-104-101400-
CENTRAL COAST

CITY           SKY/WX    TMP DP  RH WIND       PRES   REMARKS
FRISCO         CLEAR     38  23  55 VRB6      30.51R

$$

NCZ095-097-098-100-101-101400-
SOUTHERN COAST

CITY           SKY/WX    TMP DP  RH WIND       PRES   REMARKS
BEAUFORT       CLEAR     33  25  72 N7        30.53R
CEDAR ISLAND   NOT AVBL
JACKSONVILLE   CLEAR     28  19  69 N5        30.55R
PINEY ISLAND   SUNNY    N/A N/A N/A N8        30.52R
WILMINGTON     CLEAR     28  20  71 N6        30.55R


$$

NCZ011>013-027>030-043-044-078>080-089-090>093-098-101400-
COASTAL PLAIN

CITY           SKY/WX    TMP DP  RH WIND       PRES   REMARKS
AHOSKIE          N/A     23  19  87 CALM      30.55S
CLINTON        PTCLDY    27  19  71 N3        30.56S
ELIZABETHTOWN  CLEAR     27  20  75 CALM      30.55S
GOLDSBORO      PTCLDY    26  18  74 CALM      30.53S
GREENVILLE     CLEAR     27  21  80 CALM      30.55S
HAVELOCK       CLEAR     32  22  66 N6        30.54R
KENANSVILLE    PTCLDY    25  19  80 NW3       30.55S
KINSTON        PTCLDY    25  19  80 CALM      30.56R
NEW BERN       PTCLDY    28  19  69 N7        30.56R
RICHLANDS      CLEAR     27  23  85 CALM      30.55R
ROCKY MOUNT    PTCLDY    24  18  77 NW3       30.55R
WASHINGTON     PTCLDY    27  19  71 NW3       30.55S
WHITEVILLE     CLEAR     29  18  63 N3        30.55R

$$

AMZ130-135-150-152-154-156-158-170-250-252-270-ANZ085-086-088-633-658-670-101400-
MARINE OBSERVATIONS

STATION/POSITION TIME  TEMP    WIND        PRES    WAVE   SWELL
                       AIR SEA DIR/SP/G            HT/PER HT/PER
                 (UTC) (F)     (DEG/KT/KT) (MB)    (FT/S) (FT/S)
CHESAPEAKE LIGHT NOT AVBL
64 E VA BEACH    1250   39 58  310/ 14/ 17 1032.0    5/ 6   3/ 7
DUCK             1300   33 51  320/ 11/ 14 1032.7
2 E DUCK         NOT AVBL
OREGON INLET     1300          320/ 10/ 12 1033.2
13E OREGON INLT  NOT AVBL
HATTERAS CG      1300   38 52  340/ 14/ 17 1032.6
DIAMOND BUOY     1250   42 77  350/ 14/ 19 1032.5    5/ 8   3/ 8
CAPE LOOKOUT     1300   36     360/ 12/ 13 1033.2
BEAUFORT LAB     1300   34 50  360/  9/ 12 1032.8
30 SE NEW RVR IN 1308   42 69   10/ 10/ 14 1033.6
30 SE NEW RVR IN 1243      69                N/A     3/ 4
27 SE WRIGHTSVLE 1308   43 69   20/ 10/ 17 1033.2
5 SE WRIGHTSVLE  1308   34 60   30/ 14/ 23 1033.6
225 S CAPE HAT   1250   59 73  360/  8/ 12 1029.4    5/ 9   5/ 9
41 SE CHARLESTON 1250   49 73   40/ 12/ 19 1032.0    4/ 6   2/ 8

$$




USA.gov is the U.S. government's official web portal to all federal, state and local government web resources and services.